Regional Weather Roundup
Issued by NWS Sioux Falls, SD

Home | Current Version | Previous Version | Graphics & Text | Print | Product List | Glossary On
Versions: 1 2 3 4 5 6 7 8 9 10 11 12 13 14 15 16 17 18 19 20 21 22 23 24 25 26 27 28 29 30 31 32 33 34 35 36 37 38 39 40 41 42 43 44 45 46 47 48 49 50
000
ASUS43 KFSD 250002
RWRFSD

WEATHER ROUNDUP FOR SE SOUTH DAKOTA/SW MINNESOTA/NW IOWA
NATIONAL WEATHER SERVICE SIOUX FALLS SD
700 PM CDT FRI OCT 24 2014

NOTE: "FAIR" INDICATES FEW OR NO CLOUDS BELOW 12,000 FEET WITH NO
SIGNIFICANT WEATHER AND OR OBSTRUCTIONS TO VISIBILITY.


SDZ038>040-050-052>070-250100-
SOUTHEAST SOUTH DAKOTA

CITY           SKY/WX    TMP DP  RH WIND       PRES   REMARKS
CHAMBERLAIN    CLEAR     67  34  29 N5        29.97R
6HR MIN TEMP:  64; 6HR MAX TEMP:  76;

HURON          CLEAR     61  36  39 NW10      29.92R
6HR MIN TEMP:  61; 6HR MAX TEMP:  81;

MADISON        FAIR      64  39  39 W5        29.94R
MITCHELL       CLEAR     70  39  32 CALM      29.93R
6HR MIN TEMP:  67; 6HR MAX TEMP:  79;

SIOUX FALLS    PTCLDY    62  42  47 NW6       29.93R
6HR MIN TEMP:  62; 6HR MAX TEMP:  76;

WINNER         FAIR      71  28  20 N6        29.97R
YANKTON        PTCLDY    63  46  55 CALM      29.94R
$$

MNZ071-072-080-081-089-090-097-098-250100-
SOUTHWEST MINNESOTA

CITY           SKY/WX    TMP DP  RH WIND       PRES   REMARKS
FAIRMONT       PTCLDY    63  10  13 CALM      29.90R
JACKSON        PTCLDY    61  37  41 W5        29.92R
LUVERNE        PTCLDY    61  43  51 CALM      29.93R
MARSHALL       PTCLDY    61  39  44 W12       29.89R
6HR MIN TEMP:  61; 6HR MAX TEMP:  77;

MONTEVIDEO     PTCLDY    66  39  37 W3        29.88R
PIPESTONE      MOCLDY    66  37  34 NW5       29.94R
REDWOOD FALLS  PTCLDY    67  42  40 SW3       29.87R
TRACY          PTCLDY    65  41  42 W5        29.91R
WINDOM         CLEAR     61  37  41 W6        29.92R
WORTHINGTON    CLEAR     59  39  47 W3        29.94R
$$

IAZ001>003-012>014-020>022-031-032-NEZ013-014-SDZ071-250100-
NORTHWEST IOWA

CITY           SKY/WX    TMP DP  RH WIND       PRES   REMARKS
CHEROKEE       CLEAR     62  49  62 CALM      29.94R
DENISON        CLEAR     64  54  68 CALM      29.92R
ESTHERVILLE    PTCLDY    59  37  44 W6        29.91R
LE MARS        CLEAR     61  46  59 CALM      29.93S
ORANGE CITY    PTCLDY    68  45  42 CALM      29.94R
SHELDON        CLEAR     61  45  55 CALM      29.92R
SIOUX CITY     PTCLDY    64  46  52 N5        29.94R
6HR MIN TEMP:  63; 6HR MAX TEMP:  78;

SPENCER        CLEAR     59  43  55 NW9       29.93R
6HR MIN TEMP:  58; 6HR MAX TEMP:  75;

STORM LAKE     CLEAR     63  48  59 W5        29.95R
$$

ABBREVIATIONS USED IN REMARKS
   TC - TEMPERATURE IN CELSIUS
  WCI - WIND CHILL INDEX
   HX - HEAT INDEX
  VSB - VISIBILITY




USA.gov is the U.S. government's official web portal to all federal, state and local government web resources and services.